Hourly Data Report for July 01, 2021

ST. JOHN'S INTL A
NEWFOUNDLAND
Current Station Operator: NAVCAN

47°37'07.000" N
52°45'09.000" W
140.50 m
8403505
71801
YYT

Download Data

Hourly Data (July 2021)
Hourly Data Report for July 1, 2021
TIME
LST
Temp Definition
°C
Dew Point Definition
°C
Rel Hum Definition
%
Precip. Amount Definition
mm

Wind Dir Definition
10's deg

Wind Spd Definition
km/h
Visibility Definition
km
Stn Press Definition
kPa
Hmdx Definition


Wind Chill Definition


Weather Definition


00:30 11.4 9.7 89   29 17 24.1 99.76     LegendNANA
01:30 11.1 9.9 92   28 15 24.1 99.72     LegendNANA
02:30 11.0 10.0 94   28 12 24.1 99.70     Cloudy
03:30 10.7 10.0 96   30 12 9.7 99.69     Fog
04:30 8.8 8.5 98   5 13 0.4 99.72     Rain Showers, Fog
05:30 8.3 8.2 99   4 14 0.2 99.69     Fog
06:30 8.2 8.1 99   5 18 0.4 99.68     Fog
07:30 8.3 8.2 100   6 17 0.4 99.69     Drizzle, Fog
08:30 8.4 8.4 100   6 16 0.4 99.70     Drizzle, Fog
09:30 8.3 8.3 100   8 19 0.4 99.68     Rain, Fog
10:30 8.4 8.3 100   7 17 0.6 99.68     Rain, Fog
11:30 8.5 8.5 100   6 22 0.4 99.65     Rain, Fog
12:30 8.0 7.9 100   6 23 1.2 99.71     Rain, Fog
13:30 7.6 7.6 100   6 27 1.6 99.72     Rain, Fog
14:30 7.9 7.9 100   7 19 1.2 99.68     Rain, Fog
15:30 8.0 8.0 100   8 17 1.2 99.68     Rain, Fog
16:30 7.8 7.8 100   8 20 1.2 99.67     Rain, Fog
17:30 7.6 7.6 100   8 24 1.2 99.62     Rain, Fog
18:30 7.5 7.5 100   8 21 1.2 99.63     Rain, Fog
19:30 7.5 7.4 100   7 21 1.2 99.65     Rain, Fog
20:30 7.5 7.4 100   8 22 1.6 99.64     Rain, Fog
21:30 7.4 7.3 100   7 21 19.3 99.68     Drizzle
22:30 7.3 7.2 99   6 19 19.3 99.68     Rain
23:30 7.3 7.2 99   6 16 24.1 99.67     Rain

Notes on Data Quality.

Legend

  • E = Estimated
  • M = Missing
  • NA = Not Available*
  • [empty] = Indicates an unobserved value
Date modified: